When you browse on this site, cookies collect data to enhance your experience and personalize the content and advertising you see.
Visit our Privacy Policy to learn more. By continuing to use the site, you agree to this use of cookies and data.

Hourly Weather Iokogama

Today, 14 July, Tuesday

Time Temperature Precipitation Wind Pressure Humidity
00:00 +23°C° 0.1 mm 4 mps 753 mmHg 85%
01:00 +23°C° 0.1 mm 5 mps 752 mmHg 85%
02:00 +23°C° 0.1 mm 5 mps 752 mmHg 85%
03:00 +23°C° 0 mm 5 mps 751 mmHg 87%
04:00 +23°C° 0.9 mm 6 mps 751 mmHg 88%
05:00 +23°C° 0.9 mm 7 mps 751 mmHg 89%
06:00 +23°C° 0.9 mm 7 mps 751 mmHg 91%
07:00 +24°C° 1.8 mm 7 mps 751 mmHg 90%
08:00 +24°C° 1.8 mm 8 mps 750 mmHg 89%
09:00 +26°C° 0 mm 6 mps 750 mmHg 85%
10:00 +26°C° 0.6 mm 7 mps 750 mmHg 85%
11:00 +26°C° 0.6 mm 7 mps 749 mmHg 84%
12:00 +26°C° 0.6 mm 8 mps 749 mmHg 84%
13:00 +27°C° 0.1 mm 8 mps 749 mmHg 78%
14:00 +28°C° 0.1 mm 8 mps 748 mmHg 72%
15:00 +29°C° 0 mm 4 mps 748 mmHg 70%
16:00 +29°C° 0 mm 5 mps 747 mmHg 71%
17:00 +29°C° 0 mm 5 mps 747 mmHg 71%
18:00 +28°C° 0 mm 6 mps 747 mmHg 72%
19:00 +28°C° 0 mm 6 mps 747 mmHg 75%
20:00 +27°C° 0 mm 6 mps 747 mmHg 78%
21:00 +27°C° 0 mm 4 mps 746 mmHg 86%
22:00 +26°C° 0 mm 4 mps 746 mmHg 86%
23:00 +26°C° 0 mm 3 mps 746 mmHg 85%

Tomorrow, 15 July, Wednesday

Time Temperature Precipitation Wind Pressure Humidity
00:00 +26°C° 0 mm 3 mps 746 mmHg 84%
01:00 +26°C° 0 mm 3 mps 746 mmHg 85%
02:00 +25°C° 0 mm 3 mps 745 mmHg 86%
03:00 +25°C° 0 mm 3 mps 745 mmHg 86%
04:00 +25°C° 0 mm 4 mps 745 mmHg 86%
05:00 +25°C° 0 mm 4 mps 745 mmHg 87%
06:00 +25°C° 0 mm 5 mps 746 mmHg 87%
07:00 +25°C° 0 mm 4 mps 746 mmHg 86%
08:00 +25°C° 0 mm 4 mps 746 mmHg 85%
09:00 +25°C° 0 mm 4 mps 747 mmHg 84%
10:00 +25°C° 0.1 mm 4 mps 747 mmHg 82%
11:00 +25°C° 0.1 mm 4 mps 747 mmHg 81%
12:00 +25°C° 0.1 mm 4 mps 747 mmHg 79%
13:00 +25°C° 0.2 mm 4 mps 747 mmHg 81%
14:00 +25°C° 0.2 mm 4 mps 747 mmHg 82%
15:00 +23°C° 0.2 mm 4 mps 747 mmHg 84%
16:00 +23°C° 0.6 mm 4 mps 747 mmHg 85%
17:00 +23°C° 0.6 mm 4 mps 748 mmHg 87%
18:00 +23°C° 0.6 mm 4 mps 748 mmHg 88%
19:00 +23°C° 0.5 mm 4 mps 748 mmHg 88%
20:00 +22°C° 0.5 mm 4 mps 748 mmHg 89%
21:00 +22°C° 0.5 mm 3 mps 749 mmHg 89%
22:00 +22°C° 0.2 mm 3 mps 749 mmHg 89%
23:00 +22°C° 0.2 mm 3 mps 749 mmHg 90%

Day after tomorrow, 16 July, Thursday

Time Temperature Precipitation Wind Pressure Humidity
00:00 +22°C° 0.2 mm 3 mps 749 mmHg 90%
01:00 +22°C° 0 mm 3 mps 749 mmHg 89%
02:00 +22°C° 0 mm 3 mps 749 mmHg 89%
03:00 +22°C° 0 mm 3 mps 749 mmHg 88%
04:00 +22°C° 0 mm 3 mps 749 mmHg 88%
05:00 +22°C° 0 mm 3 mps 750 mmHg 87%
06:00 +22°C° 0 mm 3 mps 750 mmHg 87%
07:00 +24°C° 0 mm 3 mps 750 mmHg 83%
08:00 +25°C° 0 mm 2 mps 750 mmHg 80%
09:00 +25°C° 0 mm 2 mps 751 mmHg 77%
10:00 +26°C° 0 mm 2 mps 751 mmHg 73%
11:00 +27°C° 0 mm 2 mps 751 mmHg 68%
12:00 +29°C° 0 mm 2 mps 751 mmHg 63%
13:00 +29°C° 0 mm 2 mps 751 mmHg 62%
14:00 +29°C° 0 mm 3 mps 751 mmHg 61%
15:00 +29°C° 0 mm 3 mps 751 mmHg 60%
16:00 +29°C° 0 mm 3 mps 751 mmHg 64%
17:00 +28°C° 0 mm 3 mps 751 mmHg 67%
18:00 +27°C° 0 mm 3 mps 752 mmHg 71%
19:00 +27°C° 0 mm 3 mps 752 mmHg 73%
20:00 +26°C° 0 mm 2 mps 752 mmHg 76%
21:00 +26°C° 0 mm 2 mps 753 mmHg 79%
22:00 +26°C° 0.2 mm 2 mps 753 mmHg 80%
23:00 +25°C° 0.2 mm 2 mps 753 mmHg 82%

17 July, Friday

Time Temperature Precipitation Wind Pressure Humidity
00:00 +25°C° 0.2 mm 2 mps 752 mmHg 84%
01:00 +25°C° 1.7 mm 3 mps 752 mmHg 86%
02:00 +25°C° 1.7 mm 3 mps 752 mmHg 88%
03:00 +25°C° 1.7 mm 3 mps 752 mmHg 89%
04:00 +25°C° 1.2 mm 4 mps 752 mmHg 90%
05:00 +25°C° 1.2 mm 4 mps 752 mmHg 90%
06:00 +23°C° 1.2 mm 5 mps 752 mmHg 91%
07:00 +25°C° 1.7 mm 5 mps 752 mmHg 90%
08:00 +25°C° 1.7 mm 5 mps 752 mmHg 90%
09:00 +25°C° 1.7 mm 5 mps 753 mmHg 89%
10:00 +25°C° 2.1 mm 4 mps 753 mmHg 88%
11:00 +25°C° 2.1 mm 4 mps 753 mmHg 86%
12:00 +25°C° 2.1 mm 3 mps 753 mmHg 84%
13:00 +25°C° 1.9 mm 2 mps 753 mmHg 84%
14:00 +25°C° 1.9 mm 2 mps 753 mmHg 84%
15:00 +26°C° 1.9 mm 1 mps 753 mmHg 84%
16:00 +25°C° 0.7 mm 1 mps 754 mmHg 86%
17:00 +25°C° 0.7 mm 1 mps 754 mmHg 87%
18:00 +25°C° 0.7 mm 1 mps 755 mmHg 88%
19:00 +25°C° 0.1 mm 1 mps 755 mmHg 89%
20:00 +25°C° 0.1 mm 1 mps 756 mmHg 89%
21:00 +25°C° 0.1 mm 1 mps 756 mmHg 90%
22:00 +25°C° 1.3 mm 1 mps 756 mmHg 91%
23:00 +25°C° 1.3 mm 1 mps 756 mmHg 92%

18 July, Saturday

Time Temperature Precipitation Wind Pressure Humidity
00:00 +24°C° 1.3 mm 1 mps 755 mmHg 93%
01:00 +24°C° 4.7 mm 2 mps 755 mmHg 93%
02:00 +24°C° 4.7 mm 2 mps 755 mmHg 94%
03:00 +24°C° 4.7 mm 3 mps 755 mmHg 94%
04:00 +24°C° 6.2 mm 2 mps 755 mmHg 94%
05:00 +24°C° 6.2 mm 2 mps 755 mmHg 94%
06:00 +24°C° 6.2 mm 2 mps 755 mmHg 95%
07:00 +25°C° 3.7 mm 2 mps 755 mmHg 91%
08:00 +25°C° 3.7 mm 2 mps 755 mmHg 87%
09:00 +26°C° 3.7 mm 2 mps 755 mmHg 84%
10:00 +27°C° 1.3 mm 2 mps 755 mmHg 78%
11:00 +29°C° 1.3 mm 2 mps 755 mmHg 72%
12:00 +30°C° 1.3 mm 3 mps 754 mmHg 66%
13:00 +30°C° 0.3 mm 4 mps 754 mmHg 69%
14:00 +29°C° 0.3 mm 6 mps 754 mmHg 71%
15:00 +29°C° 0.3 mm 8 mps 754 mmHg 74%
16:00 +29°C° 0.2 mm 8 mps 754 mmHg 76%
17:00 +28°C° 0.2 mm 7 mps 754 mmHg 78%
18:00 +28°C° 0.2 mm 7 mps 755 mmHg 80%
19:00 +27°C° 0.2 mm 6 mps 755 mmHg 80%
20:00 +27°C° 0.2 mm 6 mps 755 mmHg 80%
21:00 +27°C° 0.2 mm 5 mps 755 mmHg 80%
22:00 +27°C° 0 mm 5 mps 755 mmHg 81%
23:00 +27°C° 0 mm 5 mps 755 mmHg 82%

19 July, Sunday

Time Temperature Precipitation Wind Pressure Humidity
00:00 +26°C° 0 mm 5 mps 754 mmHg 83%
01:00 +26°C° 0.3 mm 5 mps 754 mmHg 85%
02:00 +26°C° 0.3 mm 6 mps 753 mmHg 86%
03:00 +26°C° 0.3 mm 7 mps 753 mmHg 87%
04:00 +26°C° 1.2 mm 7 mps 753 mmHg 88%
05:00 +26°C° 1.2 mm 8 mps 753 mmHg 89%
06:00 +26°C° 1.2 mm 9 mps 753 mmHg 90%
07:00 +26°C° 1.6 mm 10 mps 753 mmHg 88%
08:00 +27°C° 1.6 mm 10 mps 753 mmHg 86%
09:00 +27°C° 1.6 mm 10 mps 753 mmHg 85%
10:00 +27°C° 0.2 mm 10 mps 753 mmHg 83%
11:00 +28°C° 0.2 mm 9 mps 753 mmHg 82%
12:00 +28°C° 0.2 mm 9 mps 753 mmHg 80%
13:00 +28°C° 0.9 mm 9 mps 753 mmHg 83%
14:00 +27°C° 0.9 mm 8 mps 753 mmHg 85%
15:00 +27°C° 0.9 mm 8 mps 753 mmHg 87%
16:00 +28°C° 0 mm 8 mps 753 mmHg 84%
17:00 +28°C° 0 mm 8 mps 753 mmHg 81%
18:00 +29°C° 0 mm 7 mps 753 mmHg 78%
19:00 +29°C° 0 mm 7 mps 754 mmHg 80%
20:00 +28°C° 0 mm 6 mps 754 mmHg 81%
21:00 +28°C° 0 mm 6 mps 755 mmHg 83%
22:00 +27°C° 0 mm 5 mps 754 mmHg 84%
23:00 +27°C° 0 mm 5 mps 754 mmHg 85%
Show more